Cloud_Cover
100 100 100 100 100 100 100 100 100 100 100 100 100 100 99 98 100 100 100 100 95 100 100 100 100 100 100 100 100 100 98 100 100 100 100 13 12 5 5 5 5 5 5 12 5 1 0 5 63
100 100 100 100 100 100 97 100 100 100 61 84 100 100 100 100 100 100 100 100 100 100 95 100 100 100 100 100 100 85 82 100 100 100 100 30 85 5 5 5 5 5 5 5 4 1 5 2 33
100 100 96 100 98 94 76 98 100 20 77 98 74 98 67 97 100 100 100 100 100 96 100 81 100 100 100 100 100 100 100 46 97 100 100 97 100 64 5 5 5 5 5 5 5 2 4 0 35
9 100 56 100 24 76 79 88 38 74 97 97 99 82 58 94 100 100 100 100 100 100 100 100 100 100 100 100 100 96 100 89 99 100 72 14 82 23 5 5 5 5 23 6 55 4 3 0 0
99 37 100 6 24 100 69 86 31 99 97 100 96 77 80 61 66 100 100 100 100 100 93 100 100 100 100 100 100 100 100 100 100 100 88 55 43 5 6 5 5 5 5 5 5 34 2 1 0
100 92 64 6 31 45 84 43 86 69 10 95 75 13 78 78 55 92 99 100 100 100 100 100 100 100 100 56 100 100 100 100 100 100 100 5 5 5 5 5 5 5 5 5 6 8 45 4 0
26 7 11 6 79 81 46 86 83 88 31 12 26 57 93 100 74 63 62 100 100 100 100 100 100 100 100 100 100 100 100 100 100 100 100 86 5 5 5 5 5 5 5 5 5 5 5 7 4
100 100 50 3 5 36 30 69 37 97 100 77 81 32 43 97 87 72 94 98 100 100 100 100 100 100 100 100 100 100 86 100 100 100 99 100 5 5 88 49 5 5 19 5 5 5 5 5 19
80 100 10 8 0 0 39 69 100 52 10 94 18 1 4 5 45 93 100 82 98 100 100 100 100 100 100 92 100 100 100 100 100 100 100 100 100 10 12 28 33 5 16 66 8 5 5 5 36
81 98 2 4 0 0 2 42 3 0 8 12 10 0 2 5 5 66 100 74 92 100 100 100 100 100 76 62 100 100 100 100 98 100 97 100 100 64 100 40 68 98 5 70 100 5 5 5 57
35 6 0 0 0 0 0 0 0 2 5 8 0 0 0 5 5 97 100 100 100 100 100 100 100 89 100 100 100 100 100 52 73 100 100 100 100 97 100 100 100 92 59 62 27 97 49 6 14
17 1 1 0 0 0 0 0 1 36 66 0 0 0 0 0 3 100 85 99 100 100 100 100 100 100 100 92 52 100 100 100 90 100 93 100 100 100 100 100 100 100 60 21 99 64 99 91 99
56 3 1 0 0 0 0 0 0 6 27 0 0 0 0 0 0 34 100 100 100 100 100 100 100 98 98 100 70 100 100 100 100 68 20 100 100 100 100 100 100 100 43 41 82 83 77 76 86
54 17 2 3 2 3 1 1 0 4 0 0 0 0 0 0 0 3 99 55 99 100 95 76 95 100 100 93 94 47 100 99 81 100 22 24 100 100 100 100 100 100 94 96 91 100 76 100 14
91 5 24 1 2 0 5 4 5 0 0 0 0 0 0 0 0 6 0 81 100 79 69 100 100 99 75 100 75 64 16 95 18 93 68 99 38 95 100 100 100 100 81 86 100 55 99 97 35
95 100 87 77 10 9 6 83 50 0 0 1 0 0 0 0 0 20 28 8 100 100 100 100 100 98 100 96 26 28 8 39 50 93 64 100 99 94 100 100 100 100 59 96 78 100 100 99 95
100 100 100 55 100 4 41 100 100 33 0 1 3 0 0 0 0 8 18 0 0 0 32 81 100 100 91 100 40 37 5 68 95 58 70 83 100 87 96 97 100 100 76 60 97 100 78 74 91
100 100 100 100 100 98 4 100 100 90 13 4 18 2 1 2 8 28 100 3 0 0 0 0 0 99 5 0 66 98 17 99 97 99 100 40 55 100 62 100 100 100 12 66 96 100 100 53 100
100 82 100 100 43 4 62 96 0 0 0 5 5 4 0 4 15 100 100 76 3 0 0 0 0 100 10 37 8 97 75 100 11 68 7 68 5 82 100 70 100 45 45 100 100 9 88 100 76
4 100 76 100 28 1 95 30 100 0 0 0 0 0 0 0 0 0 9 5 51 41 3 0 94 20 5 12 40 6 34 0 26 15 57 5 6 40 100 12 100 96 4 42 21 26 24 69 40
0 82 53 100 86 0 100 80 100 100 90 5 0 0 0 0 0 0 0 6 12 0 0 0 32 0 2 7 5 65 90 91 100 99 100 100 41 48 5 5 5 5 2 56 97 76 18 29 6
6 97 74 65 15 65 91 67 99 100 100 95 0 0 0 0 0 0 0 2 6 0 0 0 0 0 0 0 92 0 0 0 16 99 100 84 4 19 5 5 2 5 58 100 100 100 100 100 15
81 11 72 38 34 3 91 89 100 100 100 100 40 0 0 0 0 0 0 0 15 0 0 2 0 0 0 0 6 0 0 0 97 100 100 100 72 12 6 8 7 7 100 100 100 100 100 45 59
0 97 65 4 1 5 29 98 100 100 100 100 61 24 65 0 0 0 0 8 0 4 1 78 27 3 0 0 0 0 0 1 94 98 100 100 81 92 100 100 54 68 5 100 90 87 5 24 14
0 1 3 0 0 0 26 98 100 100 100 100 100 47 96 0 0 0 0 0 0 0 10 100 95 100 71 0 0 0 0 0 4 100 100 38 100 100 100 100 98 72 97 72 6 0 5 4 1
0 0 0 0 0 93 100 57 49 100 100 100 100 100 100 2 0 0 0 0 0 4 52 77 100 100 8 83 0 0 0 0 0 2 100 100 100 100 100 100 100 97 80 36 5 3 0 1 5
0 0 0 0 2 84 100 87 100 100 100 93 84 100 44 0 0 0 86 0 0 5 5 5 99 89 25 11 5 1 0 0 0 0 95 100 100 100 100 100 100 100 100 26 1 5 5 11 5
0 0 0 0 0 57 87 65 100 100 90 74 68 15 0 0 0 2 0 0 0 5 5 14 5 33 8 5 4 0 0 0 0 0 68 100 100 100 100 100 100 100 100 59 69 90 84 95 11
0 0 0 1 0 14 100 100 100 81 100 88 80 0 1 0 0 0 0 0 0 4 4 1 23 51 55 25 42 3 2 0 0 0 6 100 100 100 100 100 100 100 100 100 96 100 100 100 92
0 0 0 0 0 0 53 100 36 100 100 100 11 14 9 0 0 0 0 0 0 4 5 0 54 20 5 10 5 5 5 4 0 0 0 100 100 100 100 100 100 100 100 100 100 100 100 13 5